ONEWEB-0324 (49193 NORAD) Tracking and Keplerian Element Data

This shows tracking and keplerian element data for the satellite.

Feedback or suggestion? Click here.




ElementValue
Catalog49193
NameONEWEB-0324
Epoch Orbit590
Epoch Day288.25002315
Epoch Year2021
RAAN317.8436
Inclination87.5004
Eccentricity0.0019359
Argument of Perigee192.8251
Mean Anonmoly243.152
Mean Motion14.89449905
Decay Rate-0.01413827
L11 49193U 21083H 21288.25002315 -.01413827 00000-0 -16204+0 0 9999
L22 49193 87.5004 317.8436 0019359 192.8251 243.1520 14.89449905 5903

Live tracking and technical data element details for ONEWEB-0324 (NORAD 49193). ONEWEB-0324 can be tracked NOW for your location showing map with azimuth and elevation plus other details from your city location.

Track the satellite on the map from your city or location and see movement details for azimuth, elevation, latitude, longitude, range, height, and movement on the map or in text.







IsCatalogInMostPopularTable: catalog: 49193, numindb: 6
Update: records affected: 1



GetName: 49193 ONEWEB-0324

Hit Count: updated at: Tue, 19 Oct 2021 08:24:59 GMT